TimeEDT,TemperatureF,Dew PointF,Humidity,Sea Level PressureIn,VisibilityMPH,Wind Direction,Wind SpeedMPH,Gust SpeedMPH,PrecipitationIn,Events,Conditions,WindDirDegrees,DateUTC
12:03 AM,66.2,64.4,94,29.74,10.0,West,5.8,-,N/A,,Scattered Clouds,280,2013-09-02 04:03:00
12:51 AM,64.4,62.6,94,29.74,10.0,WNW,6.9,-,N/A,,Mostly Cloudy,290,2013-09-02 04:51:00
12:54 AM,64.9,62.1,90,29.74,10.0,WNW,4.6,-,N/A,,Mostly Cloudy,290,2013-09-02 04:54:00
1:20 AM,64.4,60.8,88,29.74,10.0,WNW,5.8,-,N/A,,Overcast,300,2013-09-02 05:20:00
1:49 AM,64.4,60.8,88,29.74,10.0,Calm,Calm,-,N/A,,Overcast,0,2013-09-02 05:49:00
1:54 AM,64.0,60.1,87,29.74,10.0,Calm,Calm,-,N/A,,Overcast,0,2013-09-02 05:54:00
2:54 AM,63.0,59.0,87,29.74,10.0,NW,9.2,-,N/A,,Overcast,320,2013-09-02 06:54:00
3:01 AM,62.6,57.2,82,29.75,10.0,NW,11.5,-,N/A,,Overcast,310,2013-09-02 07:01:00
3:17 AM,62.6,57.2,82,29.75,10.0,NW,9.2,-,N/A,,Overcast,310,2013-09-02 07:17:00
3:54 AM,59.0,55.0,87,29.76,10.0,NW,11.5,25.3,N/A,,Overcast,310,2013-09-02 07:54:00
4:54 AM,57.9,54.0,87,29.77,10.0,WNW,9.2,17.3,N/A,,Overcast,300,2013-09-02 08:54:00
5:49 AM,57.2,53.6,88,29.78,10.0,NW,9.2,23.0,N/A,,Overcast,310,2013-09-02 09:49:00
5:54 AM,55.9,54.0,93,29.78,6.0,NW,10.4,18.4,0.00,Rain,Light Rain,310,2013-09-02 09:54:00
6:54 AM,55.0,53.1,93,29.81,10.0,WNW,8.1,-,0.00,,Overcast,300,2013-09-02 10:54:00
7:20 AM,53.6,53.6,100,29.81,2.0,NW,3.5,-,0.00,Rain,Light Rain,310,2013-09-02 11:20:00
7:30 AM,53.6,53.6,100,29.81,1.2,WNW,5.8,-,0.01,Rain,Light Rain,300,2013-09-02 11:30:00
7:47 AM,53.6,53.6,100,29.81,3.0,WNW,6.9,-,0.02,Rain,Light Rain,300,2013-09-02 11:47:00
7:54 AM,54.0,52.0,93,29.81,5.0,WNW,6.9,-,0.02,,Overcast,290,2013-09-02 11:54:00
8:03 AM,53.6,51.8,94,29.81,6.0,WNW,5.8,-,0.00,Rain,Light Rain,290,2013-09-02 12:03:00
8:18 AM,53.6,51.8,94,29.81,10.0,WNW,5.8,-,0.00,,Overcast,290,2013-09-02 12:18:00
8:31 AM,53.6,51.8,94,29.81,10.0,Variable,5.8,17.3,0.00,,Mostly Cloudy,0,2013-09-02 12:31:00
8:42 AM,55.4,51.8,88,29.81,10.0,West,6.9,-,0.00,,Scattered Clouds,280,2013-09-02 12:42:00
8:54 AM,55.0,52.0,89,29.82,10.0,WNW,6.9,-,0.00,,Mostly Cloudy,290,2013-09-02 12:54:00
9:54 AM,55.9,51.1,84,29.83,10.0,WNW,9.2,-,N/A,,Overcast,300,2013-09-02 13:54:00
10:54 AM,57.0,51.1,81,29.83,10.0,WNW,6.9,16.1,N/A,,Overcast,290,2013-09-02 14:54:00
11:54 AM,59.0,51.1,75,29.82,10.0,West,13.8,21.9,N/A,,Overcast,280,2013-09-02 15:54:00
12:34 PM,60.8,51.8,72,29.82,10.0,NW,15.0,24.2,N/A,,Overcast,310,2013-09-02 16:34:00
12:41 PM,60.8,51.8,72,29.82,10.0,NW,10.4,23.0,N/A,,Overcast,310,2013-09-02 16:41:00
12:54 PM,60.1,52.0,75,29.82,10.0,WNW,11.5,21.9,N/A,,Overcast,290,2013-09-02 16:54:00
1:54 PM,60.1,51.1,72,29.83,10.0,NW,11.5,25.3,N/A,,Overcast,310,2013-09-02 17:54:00
2:54 PM,61.0,52.0,72,29.83,10.0,WNW,10.4,20.7,N/A,,Overcast,300,2013-09-02 18:54:00
3:54 PM,60.1,51.1,72,29.83,10.0,West,9.2,21.9,N/A,,Overcast,280,2013-09-02 19:54:00
4:54 PM,60.1,51.1,72,29.84,10.0,WNW,11.5,19.6,N/A,,Overcast,300,2013-09-02 20:54:00
5:54 PM,59.0,51.1,75,29.85,10.0,NW,12.7,19.6,N/A,,Overcast,310,2013-09-02 21:54:00
6:54 PM,57.0,51.1,81,29.86,10.0,NW,9.2,-,0.00,,Overcast,320,2013-09-02 22:54:00
7:54 PM,55.9,50.0,80,29.86,10.0,Variable,6.9,-,N/A,,Overcast,0,2013-09-02 23:54:00
8:54 PM,55.0,48.9,80,29.87,10.0,NW,13.8,23.0,N/A,,Overcast,320,2013-09-03 00:54:00
9:54 PM,55.0,48.9,80,29.87,10.0,NW,11.5,24.2,N/A,,Overcast,310,2013-09-03 01:54:00
10:54 PM,55.9,48.9,77,29.87,10.0,NW,11.5,19.6,N/A,,Overcast,310,2013-09-03 02:54:00
11:54 PM,55.0,50.0,83,29.88,10.0,WNW,9.2,17.3,N/A,,Overcast,300,2013-09-03 03:54:00